STARLINK-2506, 48315

Orbit data source: Space-Track

STARLINK-2506, 48315 is a payload satellite owned by SpaceX/Seattle (US) in LEO that was launched on Thu, 29 Apr 2021 UTC via an FALCON 9 launch vehicle from the Air Force Eastern Test Range (AFETR). Payload-class satellites include a variety of spacecraft equipped with specific instruments for various scientific and technological missions. These include communications satellites like Starlink; space stations such as the ISS; scientific satellites like the Hubble; Earth observation satellites from companies like Planet Labs, Umbra, and HawkEye 360; GPS; miniature CubeSats for education and research; and military/defense satellites.

Loading next visibility...
Identifier
48315, 2021-036AR
Orbit
LEO
Country
Flag of USUS
Related business
Manufacturer
SpaceX/Seattle
Mission
Operational Commercial Communications
Bus & Motor
STARLINK, Unknown motor
Mass
260 kg wet, ~248 kg dry
Launch date (UTC)
2021-04-29 (4 years ago)
Launch vehicle
FALCON 9
Launch site
Air Force Eastern Test Range (AFETR)
Object type
Payload
Rocket body
Debris
Shape & HBR
Box + 1 Pan, 10.1 m
Radar Cross Section
13.562 m², Large (>1 m²)

Expand to show TLE details & history
Last TLE update: 9 hours ago

TLE from 9 hours ago
0 STARLINK-2506
1 48315U 21036AR  25296.46960866  .00008995  00000-0  62171-3 0  9993
2 48315  53.0542 347.6238 0001704  92.0643 268.0541 15.06415027247483
Epoch: 2025-10-23T11:16Z
TLE epoch observation values (Epoch: 2025-10-23T11:16:14.188Z)
Latitude
-0.00002°
Longitude
146.43626°
Altitude
548.085 km
Speed
7.589 km/s
True Right ascension
23h 10m 29s
True Declination
0° 00' 00"
Sunlit
Object was in full shadow at epoch
Visualization orbit readout
Latitude
Unknown
Longitude
Unknown
Altitude
Unknown
Speed
Unknown
Apparent Right ascension
Unknown
Apparent Declination
Unknown
Sunlit
N/A
Visualization observer readout
Local Sidereal Time
14:59:41
Azimuth
Unknown
Elevation
Unknown
Doppler factor
Unknown
Orbital elements
Apogee altitude
548.616 km
Perigee altitude
546.256 km
Semi-major axis
6,925.573 km
Eccentricity
0.00017
Inclination
53.0542°
RAAN
347.6238°
Arg. of periapsis
92.0643°
True anomaly
268.03459°
Mean anomaly
268.0541°
Eccentric anomaly
268.04434°
Mean motion
3.76582 °/min
Orbital period
95.6 mins
BSTAR
0.00062171
Loading maneuver chart data...
Computing Atmospheric mass density...
Loading historical data...
Loading historical data...
Loading historical data...
Loading historical data...
Loading historical data...
Loading historical data...
Loading historical data...

Documentation

Showing up to 5 results
|